When you browse on this site, cookies collect data to enhance your experience and personalize the content and advertising you see.
Visit our Privacy Policy to learn more. By continuing to use the site, you agree to this use of cookies and data.
  • En España
  • Lista de países
  • Para 7 días
  • Temperatura del agua
  • El tiempo en el mapa
  • Informadores
  • user-avatar
    Iniciar sesión

    Tiempo cada hora Kuriv

    Hoy, 14 Octubre, Lunes

    Tiempo Temperatura Precipitaciones Viento Presión Humedad
    00:00 +12°C° 0 mm 1 mps 740 mmHg 67%
    01:00 +12°C° 0 mm 1 mps 740 mmHg 68%
    02:00 +12°C° 0 mm 1 mps 740 mmHg 71%
    03:00 +11°C° 0 mm 1 mps 739 mmHg 71%
    04:00 +11°C° 0 mm 1 mps 739 mmHg 71%
    05:00 +11°C° 0 mm 1 mps 739 mmHg 72%
    06:00 +11°C° 0 mm 1 mps 739 mmHg 69%
    07:00 +12°C° 0 mm 1 mps 739 mmHg 66%
    08:00 +13°C° 0 mm 1 mps 740 mmHg 64%
    09:00 +15°C° 0 mm 1 mps 740 mmHg 58%
    10:00 +17°C° 0 mm 2 mps 739 mmHg 52%
    11:00 +19°C° 0 mm 2 mps 739 mmHg 46%
    12:00 +20°C° 0 mm 2 mps 739 mmHg 44%
    13:00 +21°C° 0 mm 2 mps 739 mmHg 42%
    14:00 +23°C° 0 mm 2 mps 739 mmHg 40%
    15:00 +22°C° 0 mm 1 mps 739 mmHg 45%
    16:00 +21°C° 0 mm 1 mps 738 mmHg 50%
    17:00 +19°C° 0 mm 1 mps 738 mmHg 55%
    18:00 +18°C° 0 mm 1 mps 738 mmHg 57%
    19:00 +16°C° 0 mm 1 mps 738 mmHg 60%
    20:00 +15°C° 0 mm 1 mps 739 mmHg 62%
    21:00 +14°C° 0 mm 1 mps 738 mmHg 64%
    22:00 +14°C° 0 mm 1 mps 738 mmHg 65%
    23:00 +13°C° 0 mm 1 mps 738 mmHg 67%

    Mañana, 15 Octubre, Martes

    Tiempo Temperatura Precipitaciones Viento Presión Humedad
    00:00 +13°C° 0 mm 1 mps 738 mmHg 67%
    01:00 +13°C° 0 mm 1 mps 738 mmHg 67%
    02:00 +13°C° 0 mm 1 mps 738 mmHg 67%
    03:00 +13°C° 0 mm 1 mps 738 mmHg 67%
    04:00 +12°C° 0 mm 1 mps 737 mmHg 67%
    05:00 +12°C° 0 mm 1 mps 737 mmHg 67%
    06:00 +12°C° 0 mm 2 mps 737 mmHg 67%
    07:00 +13°C° 0 mm 2 mps 737 mmHg 66%
    08:00 +13°C° 0 mm 2 mps 738 mmHg 66%
    09:00 +14°C° 0 mm 3 mps 737 mmHg 60%
    10:00 +17°C° 0 mm 3 mps 737 mmHg 54%
    11:00 +20°C° 0 mm 4 mps 737 mmHg 48%
    12:00 +21°C° 0 mm 4 mps 737 mmHg 46%
    13:00 +22°C° 0 mm 4 mps 737 mmHg 45%
    14:00 +22°C° 0 mm 4 mps 736 mmHg 43%
    15:00 +21°C° 0 mm 4 mps 736 mmHg 47%
    16:00 +20°C° 0 mm 4 mps 736 mmHg 52%
    17:00 +18°C° 0 mm 3 mps 735 mmHg 57%
    18:00 +17°C° 0 mm 3 mps 735 mmHg 60%
    19:00 +16°C° 0 mm 3 mps 735 mmHg 63%
    20:00 +14°C° 0 mm 3 mps 735 mmHg 66%
    21:00 +13°C° 0 mm 3 mps 735 mmHg 70%
    22:00 +13°C° 0 mm 3 mps 735 mmHg 74%
    23:00 +13°C° 0 mm 2 mps 735 mmHg 78%

    Pasado mañana, 16 Octubre, Miércoles

    Tiempo Temperatura Precipitaciones Viento Presión Humedad
    00:00 +13°C° 0 mm 2 mps 735 mmHg 80%
    01:00 +12°C° 0 mm 2 mps 735 mmHg 81%
    02:00 +12°C° 0 mm 2 mps 735 mmHg 83%
    03:00 +12°C° 0 mm 2 mps 735 mmHg 83%
    04:00 +10°C° 0 mm 2 mps 735 mmHg 83%
    05:00 +10°C° 0 mm 2 mps 735 mmHg 83%
    06:00 +12°C° 0 mm 2 mps 735 mmHg 80%
    07:00 +12°C° 0 mm 2 mps 736 mmHg 78%
    08:00 +13°C° 0 mm 2 mps 736 mmHg 75%
    09:00 +15°C° 0 mm 2 mps 736 mmHg 66%
    10:00 +17°C° 0 mm 2 mps 736 mmHg 57%
    11:00 +20°C° 0 mm 2 mps 736 mmHg 48%
    12:00 +21°C° 0 mm 2 mps 736 mmHg 45%
    13:00 +23°C° 0 mm 1 mps 737 mmHg 42%
    14:00 +25°C° 0 mm 1 mps 737 mmHg 39%
    15:00 +23°C° 0 mm 1 mps 736 mmHg 44%
    16:00 +22°C° 0 mm 1 mps 736 mmHg 49%
    17:00 +20°C° 0 mm 1 mps 736 mmHg 54%
    18:00 +19°C° 0 mm 1 mps 736 mmHg 58%
    19:00 +18°C° 0 mm 1 mps 737 mmHg 61%
    20:00 +15°C° 0 mm 1 mps 737 mmHg 65%
    21:00 +15°C° 0 mm 1 mps 737 mmHg 67%
    22:00 +14°C° 0 mm 1 mps 737 mmHg 69%
    23:00 +12°C° 0 mm 0 mps 737 mmHg 71%

    17 Octubre, Jueves

    Tiempo Temperatura Precipitaciones Viento Presión Humedad
    00:00 +12°C° 0 mm 0 mps 737 mmHg 73%
    01:00 +12°C° 0 mm 0 mps 737 mmHg 74%
    02:00 +12°C° 0 mm 0 mps 737 mmHg 75%
    03:00 +12°C° 0 mm 0 mps 737 mmHg 77%
    04:00 +12°C° 0 mm 0 mps 737 mmHg 78%
    05:00 +12°C° 0 mm 0 mps 737 mmHg 79%
    06:00 +12°C° 0 mm 0 mps 738 mmHg 80%
    07:00 +12°C° 0 mm 0 mps 738 mmHg 80%
    08:00 +12°C° 0 mm 0 mps 738 mmHg 81%
    09:00 +14°C° 0 mm 0 mps 738 mmHg 74%
    10:00 +16°C° 0 mm 0 mps 738 mmHg 67%
    11:00 +18°C° 0 mm 0 mps 738 mmHg 60%
    12:00 +21°C° 0 mm 1 mps 738 mmHg 57%
    13:00 +22°C° 0 mm 1 mps 738 mmHg 53%
    14:00 +23°C° 0 mm 1 mps 738 mmHg 50%
    15:00 +22°C° 0 mm 1 mps 738 mmHg 55%
    16:00 +20°C° 0 mm 1 mps 738 mmHg 59%
    17:00 +19°C° 0 mm 1 mps 737 mmHg 64%
    18:00 +18°C° 0 mm 1 mps 738 mmHg 68%
    19:00 +16°C° 0 mm 1 mps 738 mmHg 73%
    20:00 +15°C° 0 mm 1 mps 738 mmHg 77%
    21:00 +15°C° 0 mm 1 mps 738 mmHg 79%
    22:00 +14°C° 0 mm 1 mps 738 mmHg 82%
    23:00 +14°C° 0 mm 1 mps 738 mmHg 84%

    18 Octubre, Viernes

    Tiempo Temperatura Precipitaciones Viento Presión Humedad
    00:00 +13°C° 0 mm 1 mps 738 mmHg 85%
    01:00 +13°C° 0 mm 1 mps 738 mmHg 86%
    02:00 +12°C° 0 mm 0 mps 738 mmHg 87%
    03:00 +13°C° 0 mm 1 mps 738 mmHg 88%
    04:00 +12°C° 0 mm 1 mps 738 mmHg 88%
    05:00 +12°C° 0 mm 1 mps 738 mmHg 89%
    06:00 +12°C° 0 mm 1 mps 739 mmHg 88%
    07:00 +13°C° 0 mm 1 mps 739 mmHg 86%
    08:00 +13°C° 0 mm 1 mps 739 mmHg 85%
    09:00 +15°C° 0 mm 1 mps 739 mmHg 76%
    10:00 +17°C° 0 mm 2 mps 739 mmHg 68%
    11:00 +19°C° 0 mm 2 mps 739 mmHg 59%
    12:00 +20°C° 0 mm 2 mps 739 mmHg 55%
    13:00 +20°C° 0 mm 3 mps 739 mmHg 51%
    14:00 +21°C° 0 mm 3 mps 738 mmHg 47%
    15:00 +20°C° 0 mm 2 mps 738 mmHg 51%
    16:00 +19°C° 0 mm 2 mps 738 mmHg 55%
    17:00 +18°C° 0 mm 2 mps 738 mmHg 59%
    18:00 +17°C° 0 mm 2 mps 738 mmHg 61%
    19:00 +16°C° 0 mm 2 mps 738 mmHg 63%
    20:00 +15°C° 0 mm 2 mps 738 mmHg 65%
    21:00 +14°C° 0 mm 2 mps 738 mmHg 66%
    22:00 +14°C° 0 mm 2 mps 738 mmHg 68%
    23:00 +13°C° 0 mm 2 mps 738 mmHg 69%

    19 Octubre, Sábado

    Tiempo Temperatura Precipitaciones Viento Presión Humedad
    00:00 +13°C° 0 mm 2 mps 738 mmHg 71%
    01:00 +12°C° 0 mm 2 mps 738 mmHg 72%
    02:00 +12°C° 0 mm 2 mps 738 mmHg 73%
    03:00 +12°C° 0 mm 2 mps 738 mmHg 74%
    04:00 +10°C° 0 mm 2 mps 738 mmHg 76%
    05:00 +10°C° 0 mm 2 mps 738 mmHg 77%
    06:00 +10°C° 0 mm 2 mps 738 mmHg 77%
    07:00 +12°C° 0 mm 2 mps 738 mmHg 77%
    08:00 +12°C° 0 mm 2 mps 738 mmHg 76%
    09:00 +14°C° 0 mm 2 mps 738 mmHg 69%
    10:00 +16°C° 0 mm 3 mps 738 mmHg 62%
    11:00 +18°C° 0 mm 3 mps 738 mmHg 54%
    12:00 +19°C° 0 mm 3 mps 738 mmHg 52%
    13:00 +20°C° 0 mm 3 mps 738 mmHg 49%
    14:00 +21°C° 0 mm 3 mps 737 mmHg 46%
    15:00 +20°C° 0 mm 3 mps 737 mmHg 50%
    16:00 +19°C° 0 mm 3 mps 737 mmHg 54%
    17:00 +18°C° 0 mm 2 mps 737 mmHg 58%
    18:00 +17°C° 0 mm 2 mps 737 mmHg 59%
    19:00 +16°C° 0 mm 3 mps 737 mmHg 59%
    20:00 +14°C° 0 mm 3 mps 737 mmHg 60%
    21:00 +13°C° 0 mm 3 mps 737 mmHg 61%
    22:00 +13°C° 0 mm 3 mps 737 mmHg 63%
    23:00 +13°C° 0 mm 2 mps 737 mmHg 64%
    Mostrar más